User: anonymous   Login
Location: Unspecified
(0.0000°N, 0.0000°E)
Time: 19:00:05
(UTC+02:00)
Language:

ATLAS 2AS CENTAUR R/B - Orbit

View from above orbital plane
View from above orbital plane
View from above satellite
View from above satellite

Ground track
Ground track

The orbit data is extracted from the following two-line orbital elements,

1 28096U 03054B   16176.91487259 0.00000020  00000-0  29242-4 0    01
2 28096  63.6684 240.8965 0270000 273.8288  86.1711 13.40809944    07
Epoch (UTC): 24 June 2016 21:57:24
Eccentricity: 0.0270000
inclination: 63.6684°
perigee height: 904 km
apogee height: 1308 km
right ascension of ascending node: 240.8965°
argument of perigee: 273.8288°
revolutions per day: 13.40809944
mean anomaly at epoch: 86.1711°
orbit number at epoch: 0

The dashed part of the orbit path shows where the satellite is in the earth's shadow,  

DLR